| time (UTC) | temp F | wind direction | speed MPH | gust MPH | rain 1hr in | rain 24hr in | rain mn in | humidity % | barometer mb |
| 20260510180005 | 52 | 347 | 9.0 | 15.0 | 0.00 | 0.12 | 0.00 | 44 | 989.4 |
| 20260510175406 | 52 | 53 | 4.0 | 17.0 | 0.00 | 0.12 | 0.00 | 45 | 989.4 |
| 20260510174714 | 52 | 31 | 4.0 | 17.0 | 0.00 | 0.12 | 0.00 | 43 | 989.2 |
| 20260510173606 | 52 | 9 | 3.0 | 18.0 | 0.00 | 0.12 | 0.00 | 45 | 989.2 |
| 20260510172708 | 52 | 339 | 4.0 | 18.0 | 0.00 | 0.12 | 0.00 | 47 | 989.1 |
| 20260510171805 | 51 | 334 | 4.0 | 15.0 | 0.00 | 0.12 | 0.00 | 47 | 989.0 |
| 20260510170903 | 51 | 256 | 4.0 | 21.0 | 0.00 | 0.12 | 0.00 | 46 | 988.9 |
| 20260510170005 | 51 | 1 | 4.0 | 17.0 | 0.00 | 0.12 | 0.00 | 48 | 988.9 |
| 20260510165405 | 51 | 328 | 10.0 | 17.0 | 0.00 | 0.12 | 0.00 | 50 | 988.7 |
| 20260510164505 | 52 | 262 | 5.0 | 15.0 | 0.00 | 0.12 | 0.00 | 51 | 988.7 |
| 20260510163605 | 50 | 312 | 8.0 | 17.0 | 0.00 | 0.12 | 0.00 | 52 | 988.6 |
| 20260510162703 | 50 | 308 | 7.0 | 18.0 | 0.00 | 0.12 | 0.00 | 55 | 988.5 |
| 20260510161806 | 50 | 311 | 10.0 | 21.0 | 0.00 | 0.12 | 0.00 | 56 | 988.5 |
| 20260510160906 | 51 | 319 | 7.0 | 14.0 | 0.00 | 0.12 | 0.00 | 56 | 988.4 |
| 20260510160005 | 51 | 303 | 6.0 | 17.0 | 0.00 | 0.12 | 0.00 | 56 | 988.5 |
| 20260510155613 | 51 | 243 | 0.0 | 11.0 | 0.00 | 0.12 | 0.00 | 57 | 988.5 |
| 20260510154503 | 51 | 337 | 4.0 | 13.0 | 0.00 | 0.12 | 0.00 | 56 | 988.3 |
| 20260510153606 | 51 | 334 | 2.0 | 17.0 | 0.00 | 0.12 | 0.00 | 57 | 988.1 |
| 20260510152703 | 51 | 338 | 4.0 | 14.0 | 0.00 | 0.12 | 0.00 | 58 | 988.0 |
| 20260510151805 | 51 | 339 | 6.0 | 20.0 | 0.00 | 0.12 | 0.00 | 58 | 987.8 |
| 20260510150905 | 51 | 354 | 6.0 | 18.0 | 0.00 | 0.12 | 0.00 | 56 | 987.6 |
| 20260510150006 | 50 | 312 | 10.0 | 18.0 | 0.00 | 0.12 | 0.00 | 57 | 987.5 |
| 20260510145405 | 51 | 318 | 9.0 | 17.0 | 0.00 | 0.12 | 0.00 | 57 | 987.3 |
| 20260510144503 | 52 | 304 | 7.0 | 15.0 | 0.00 | 0.12 | 0.00 | 55 | 987.3 |
| 20260510143605 | 52 | 311 | 3.0 | 16.0 | 0.00 | 0.12 | 0.00 | 54 | 987.2 |
| 20260510142703 | 52 | 305 | 3.0 | 13.0 | 0.00 | 0.12 | 0.00 | 54 | 987.1 |
| 20260510141804 | 51 | 271 | 4.0 | 14.0 | 0.00 | 0.12 | 0.00 | 53 | 987.0 |
| 20260510140904 | 51 | 279 | 7.0 | 12.0 | 0.00 | 0.12 | 0.00 | 54 | 986.8 |
| 20260510140004 | 51 | 326 | 2.0 | 16.0 | 0.00 | 0.12 | 0.00 | 55 | 986.8 |
| 20260510135403 | 51 | 31 | 4.0 | 15.0 | 0.00 | 0.12 | 0.00 | 56 | 986.8 |
| 20260510134503 | 51 | 242 | 5.0 | 11.0 | 0.00 | 0.12 | 0.00 | 56 | 986.8 |
| 20260510133605 | 53 | 108 | 1.0 | 10.0 | 0.00 | 0.12 | 0.00 | 56 | 986.6 |
| 20260510132705 | 51 | 326 | 4.0 | 16.0 | 0.00 | 0.12 | 0.00 | 55 | 986.5 |
| 20260510132019 | 50 | 334 | 6.0 | 16.0 | 0.00 | 0.12 | 0.00 | 56 | 986.4 |
| 20260510131116 | 51 | 32 | 4.0 | 13.0 | 0.00 | 0.12 | 0.00 | 56 | 986.3 |
| 20260510130008 | 50 | 318 | 4.0 | 11.0 | 0.00 | 0.12 | 0.00 | 57 | 986.2 |
| 20260510125405 | 50 | 46 | 2.0 | 12.0 | 0.00 | 0.12 | 0.00 | 59 | 986.2 |
| 20260510124718 | 50 | 332 | 2.0 | 12.0 | 0.00 | 0.12 | 0.00 | 59 | 986.1 |
| 20260510123815 | 51 | 57 | 2.0 | 6.0 | 0.00 | 0.12 | 0.00 | 60 | 986.0 |
| 20260510122704 | 49 | 13 | 3.0 | 13.0 | 0.00 | 0.12 | 0.00 | 63 | 986.1 |
| 20260510121803 | 48 | 321 | 3.0 | 11.0 | 0.00 | 0.12 | 0.00 | 65 | 985.8 |
| 20260510120903 | 47 | 31 | 2.0 | 11.0 | 0.00 | 0.12 | 0.00 | 66 | 985.8 |
| 20260510120007 | 46 | 64 | 4.0 | 11.0 | 0.00 | 0.12 | 0.00 | 66 | 985.7 |
| 20260510115406 | 46 | 191 | 4.0 | 11.0 | 0.00 | 0.12 | 0.00 | 68 | 985.6 |
| 20260510114506 | 45 | 316 | 4.0 | 11.0 | 0.00 | 0.12 | 0.00 | 71 | 985.5 |
| 20260510113605 | 43 | 295 | 4.0 | 11.0 | 0.00 | 0.12 | 0.00 | 75 | 985.4 |
| 20260510112918 | 42 | 315 | 2.0 | 12.0 | 0.00 | 0.12 | 0.00 | 79 | 985.3 |
| 20260510111803 | 40 | 326 | 2.0 | 7.0 | 0.00 | 0.12 | 0.00 | 81 | 985.1 |
| 20260510110905 | 40 | 289 | 2.0 | 8.0 | 0.00 | 0.12 | 0.00 | 82 | 985.0 |
| 20260510110005 | 39 | 311 | 3.0 | 9.0 | 0.00 | 0.12 | 0.00 | 83 | 984.8 |
| 20260510105405 | 39 | 307 | 2.0 | 8.0 | 0.00 | 0.12 | 0.00 | 83 | 984.7 |
| 20260510104505 | 38 | 308 | 1.0 | 8.0 | 0.00 | 0.12 | 0.00 | 84 | 984.6 |
| 20260510103603 | 38 | 316 | 2.0 | 8.0 | 0.00 | 0.12 | 0.00 | 85 | 984.4 |
| 20260510102705 | 37 | 332 | 2.0 | 6.0 | 0.00 | 0.12 | 0.00 | 86 | 984.3 |
| 20260510102016 | 37 | 289 | 2.0 | 5.0 | 0.00 | 0.12 | 0.00 | 86 | 984.1 |
| 20260510100903 | 37 | 326 | 0.0 | 4.0 | 0.00 | 0.12 | 0.00 | 86 | 984.0 |
| 20260510100005 | 37 | 237 | 2.0 | 3.0 | 0.00 | 0.12 | 0.00 | 86 | 983.8 |
| 20260510095405 | 37 | 275 | 2.0 | 6.0 | 0.00 | 0.12 | 0.00 | 85 | 983.6 |
| 20260510094508 | 37 | 321 | 2.0 | 5.0 | 0.00 | 0.12 | 0.00 | 85 | 983.6 |
| 20260510093606 | 37 | 327 | 2.0 | 4.0 | 0.00 | 0.12 | 0.00 | 85 | 983.3 |
| 20260510092914 | 37 | 313 | 1.0 | 7.0 | 0.00 | 0.12 | 0.00 | 85 | 983.3 |
| 20260510091804 | 38 | 295 | 0.0 | 6.0 | 0.00 | 0.12 | 0.00 | 84 | 983.2 |
| 20260510090906 | 38 | 281 | 2.0 | 8.0 | 0.00 | 0.12 | 0.00 | 84 | 983.1 |
| 20260510090005 | 38 | 307 | 2.0 | 8.0 | 0.00 | 0.12 | 0.00 | 83 | 982.9 |
| 20260510085405 | 38 | 278 | 2.0 | 6.0 | 0.00 | 0.12 | 0.00 | 83 | 982.9 |
| 20260510084505 | 38 | 179 | 0.0 | 13.0 | 0.00 | 0.12 | 0.00 | 82 | 982.7 |
| 20260510083605 | 38 | 347 | 2.0 | 8.0 | 0.00 | 0.12 | 0.00 | 82 | 982.6 |
| 20260510082705 | 39 | 13 | 4.0 | 8.0 | 0.00 | 0.12 | 0.00 | 81 | 982.5 |
| 20260510081805 | 39 | 198 | 2.0 | 5.0 | 0.00 | 0.12 | 0.00 | 81 | 982.5 |
| 20260510080905 | 39 | 35 | 1.0 | 7.0 | 0.00 | 0.12 | 0.00 | 81 | 982.3 |
| 20260510080004 | 39 | 225 | 2.0 | 7.0 | 0.00 | 0.12 | 0.00 | 81 | 982.3 |
| 20260510075406 | 39 | 285 | 2.0 | 10.0 | 0.00 | 0.12 | 0.00 | 81 | 982.3 |
| 20260510074505 | 39 | 242 | 2.0 | 10.0 | 0.00 | 0.12 | 0.00 | 82 | 982.2 |
| 20260510073605 | 38 | 285 | 1.0 | 4.0 | 0.00 | 0.12 | 0.00 | 82 | 982.2 |
| 20260510072706 | 39 | 288 | 1.0 | 6.0 | 0.00 | 0.12 | 0.00 | 81 | 982.0 |
| 20260510071803 | 38 | 329 | 1.0 | 3.0 | 0.00 | 0.12 | 0.00 | 80 | 981.8 |
| 20260510070903 | 39 | 303 | 0.0 | 5.0 | 0.00 | 0.12 | 0.00 | 79 | 981.7 |
| 20260510070005 | 40 | 292 | 0.0 | 4.0 | 0.00 | 0.12 | 0.00 | 78 | 981.5 |
| 20260510065405 | 40 | 336 | 2.0 | 5.0 | 0.00 | 0.12 | 0.00 | 77 | 981.5 |
| 20260510064506 | 40 | 342 | 1.0 | 7.0 | 0.00 | 0.12 | 0.00 | 76 | 981.4 |
| 20260510063604 | 41 | 294 | 0.0 | 7.0 | 0.00 | 0.12 | 0.00 | 75 | 981.5 |
| 20260510062705 | 41 | 47 | 2.0 | 8.0 | 0.00 | 0.12 | 0.00 | 74 | 981.5 |
| 20260510061806 | 42 | 241 | 1.0 | 8.0 | 0.00 | 0.12 | 0.00 | 73 | 981.4 |
| 20260510061116 | 41 | 347 | 2.0 | 6.0 | 0.00 | 0.12 | 0.00 | 73 | 981.3 |
| 20260510060005 | 42 | 297 | 4.0 | 12.0 | 0.00 | 0.12 | 0.00 | 72 | 981.2 |
| 20260510055404 | 42 | 298 | 2.0 | 12.0 | 0.00 | 0.12 | 0.00 | 72 | 981.1 |
| 20260510054717 | 42 | 53 | 4.0 | 8.0 | 0.00 | 0.12 | 0.00 | 72 | 981.2 |
| 20260510053603 | 42 | 292 | 4.0 | 11.0 | 0.00 | 0.12 | 0.00 | 72 | 981.1 |
| 20260510052703 | 42 | 320 | 2.0 | 11.0 | 0.00 | 0.12 | 0.00 | 71 | 981.0 |
| 20260510051804 | 42 | 40 | 2.0 | 10.0 | 0.00 | 0.12 | 0.00 | 71 | 980.9 |
| 20260510051116 | 42 | 276 | 3.0 | 9.0 | 0.00 | 0.12 | 0.00 | 72 | 980.8 |
| 20260510050214 | 42 | 344 | 5.0 | 9.0 | 0.00 | 0.12 | 0.00 | 73 | 980.6 |
| 20260510045403 | 42 | 149 | 1.0 | 14.0 | 0.00 | 0.12 | 0.00 | 74 | 980.7 |
| 20260510044503 | 42 | 295 | 4.0 | 15.0 | 0.00 | 0.12 | 0.00 | 74 | 980.5 |
| 20260510043605 | 43 | 262 | 4.0 | 12.0 | 0.00 | 0.12 | 0.00 | 73 | 980.3 |
| 20260510042703 | 43 | 245 | 2.0 | 10.0 | 0.00 | 0.12 | 0.00 | 73 | 980.2 |
| 20260510041804 | 42 | 300 | 4.0 | 15.0 | 0.00 | 0.12 | 0.00 | 74 | 980.0 |
| 20260510040904 | 43 | 16 | 4.0 | 15.0 | 0.00 | 0.12 | 0.00 | 74 | 979.9 |
| 20260510040005 | 43 | 54 | 4.0 | 11.0 | 0.00 | 0.12 | 0.00 | 75 | 979.8 |
| 20260510035408 | 43 | 336 | 2.0 | 13.0 | 0.00 | 0.12 | 0.00 | 74 | 979.7 |
| 20260510034505 | 44 | 288 | 7.0 | 13.0 | 0.00 | 0.12 | 0.00 | 74 | 979.6 |
| 20260510033603 | 44 | 276 | 2.0 | 11.0 | 0.00 | 0.12 | 0.00 | 73 | 979.4 |
| 20260510032706 | 44 | 222 | 3.0 | 11.0 | 0.00 | 0.12 | 0.00 | 71 | 979.1 |
| 20260510031803 | 45 | 294 | 3.0 | 8.0 | 0.00 | 0.12 | 0.00 | 70 | 979.1 |
| 20260510030905 | 44 | 302 | 4.0 | 8.0 | 0.00 | 0.12 | 0.00 | 71 | 979.1 |
| 20260510030220 | 45 | 355 | 2.0 | 10.0 | 0.00 | 0.12 | 0.00 | 71 | 978.9 |
| 20260510025616 | 45 | 335 | 1.0 | 8.0 | 0.00 | 0.12 | 0.00 | 72 | 978.9 |
| 20260510024506 | 45 | 214 | 1.0 | 6.0 | 0.00 | 0.12 | 0.00 | 71 | 978.7 |
| 20260510023604 | 45 | 343 | 2.0 | 15.0 | 0.00 | 0.12 | 0.00 | 70 | 978.7 |
| 20260510022918 | 46 | 4 | 2.0 | 15.0 | 0.00 | 0.12 | 0.00 | 69 | 978.7 |
| 20260510021806 | 46 | 50 | 2.0 | 11.0 | 0.00 | 0.12 | 0.00 | 67 | 978.4 |
| 20260510020906 | 46 | 91 | 1.0 | 7.0 | 0.00 | 0.12 | 0.00 | 66 | 978.3 |
| 20260510020005 | 46 | 267 | 1.0 | 5.0 | 0.00 | 0.12 | 0.00 | 65 | 978.3 |
| 20260510015617 | 47 | 303 | 2.0 | 7.0 | 0.00 | 0.12 | 0.00 | 64 | 978.1 |
| 20260510014719 | 47 | 47 | 2.0 | 8.0 | 0.00 | 0.12 | 0.00 | 64 | 978.0 |
| 20260510013605 | 47 | 318 | 2.0 | 8.0 | 0.00 | 0.12 | 0.00 | 64 | 977.6 |
| 20260510012705 | 47 | 331 | 0.0 | 10.0 | 0.00 | 0.12 | 0.00 | 65 | 977.4 |
| 20260510011805 | 47 | 58 | 3.0 | 8.0 | 0.00 | 0.12 | 0.00 | 65 | 977.4 |
| 20260510011114 | 47 | 194 | 3.0 | 8.0 | 0.00 | 0.12 | 0.00 | 65 | 977.3 |
| 20260510010216 | 48 | 221 | 1.0 | 5.0 | 0.00 | 0.12 | 0.00 | 66 | 977.0 |
| 20260510005405 | 49 | 248 | 2.0 | 8.0 | 0.00 | 0.12 | 0.00 | 66 | 977.0 |
| 20260510004503 | 49 | 36 | 2.0 | 11.0 | 0.00 | 0.12 | 0.00 | 66 | 976.7 |
| 20260510003605 | 50 | 19 | 2.0 | 11.0 | 0.00 | 0.12 | 0.00 | 67 | 976.8 |
| 20260510002705 | 50 | 66 | 3.0 | 11.0 | 0.00 | 0.12 | 0.00 | 68 | 976.5 |
| 20260510001806 | 50 | 323 | 0.0 | 8.0 | 0.00 | 0.12 | 0.00 | 69 | 976.5 |
| 20260510000905 | 50 | 346 | 3.0 | 5.0 | 0.00 | 0.12 | 0.00 | 70 | 976.2 |
| 20260510000006 | 50 | 60 | 2.0 | 8.0 | 0.00 | 0.12 | 0.00 | 70 | 976.0 |
| 20260509235403 | 50 | 250 | 2.0 | 8.0 | 0.00 | 0.12 | 0.00 | 70 | 976.0 |
| 20260509234503 | 51 | 108 | 2.0 | 14.0 | 0.00 | 0.12 | 0.00 | 69 | 975.6 |
| 20260509233605 | 51 | 100 | 3.0 | 11.0 | 0.00 | 0.12 | 0.00 | 70 | 975.4 |
| 20260509232703 | 51 | 348 | 2.0 | 12.0 | 0.00 | 0.12 | 0.00 | 70 | 975.3 |
| 20260509231806 | 52 | 340 | 4.0 | 11.0 | 0.00 | 0.12 | 0.00 | 70 | 975.3 |
| 20260509231115 | 52 | 338 | 2.0 | 11.0 | 0.00 | 0.12 | 0.00 | 70 | 975.1 |
| 20260509230006 | 53 | 21 | 2.0 | 11.0 | 0.00 | 0.12 | 0.00 | 68 | 974.9 |
| 20260509225406 | 54 | 240 | 2.0 | 12.0 | 0.00 | 0.12 | 0.12 | 68 | 974.6 |
| 20260509224503 | 54 | 330 | 5.0 | 15.0 | 0.00 | 0.12 | 0.12 | 66 | 974.4 |
| 20260509223606 | 56 | 279 | 4.0 | 10.0 | 0.00 | 0.12 | 0.12 | 65 | 974.3 |
| 20260509222706 | 56 | 14 | 0.0 | 9.0 | 0.00 | 0.12 | 0.12 | 66 | 973.9 |
| 20260509221805 | 56 | 224 | 2.0 | 10.0 | 0.00 | 0.12 | 0.12 | 65 | 973.8 |
| 20260509221115 | 57 | 314 | 1.0 | 17.0 | 0.00 | 0.12 | 0.12 | 64 | 973.8 |
| 20260509220005 | 58 | 322 | 7.0 | 18.0 | 0.00 | 0.12 | 0.12 | 64 | 973.2 |
| 20260509215405 | 58 | 304 | 6.0 | 18.0 | 0.00 | 0.12 | 0.12 | 64 | 972.9 |
| 20260509214504 | 59 | 310 | 5.0 | 19.0 | 0.00 | 0.12 | 0.12 | 64 | 972.8 |
| 20260509213603 | 59 | 290 | 6.0 | 17.0 | 0.00 | 0.12 | 0.12 | 65 | 972.7 |
| 20260509212703 | 59 | 300 | 6.0 | 17.0 | 0.00 | 0.12 | 0.12 | 66 | 972.5 |
| 20260509211805 | 59 | 319 | 6.0 | 18.0 | 0.00 | 0.12 | 0.12 | 66 | 972.5 |
| 20260509211116 | 60 | 307 | 7.0 | 18.0 | 0.01 | 0.12 | 0.12 | 66 | 972.5 |
| 20260509210005 | 61 | 317 | 7.0 | 22.0 | 0.01 | 0.12 | 0.12 | 68 | 972.3 |
| 20260509205405 | 60 | 323 | 4.0 | 22.0 | 0.01 | 0.12 | 0.12 | 68 | 972.1 |
| 20260509204504 | 60 | 314 | 4.0 | 17.0 | 0.02 | 0.12 | 0.12 | 76 | 972.0 |
| 20260509203606 | 60 | 324 | 6.0 | 23.0 | 0.11 | 0.12 | 0.12 | 79 | 971.9 |
| 20260509202917 | 59 | 317 | 6.0 | 19.0 | 0.12 | 0.12 | 0.12 | 83 | 971.8 |
| 20260509201805 | 56 | 309 | 7.0 | 17.0 | 0.12 | 0.12 | 0.12 | 88 | 972.0 |
| 20260509200903 | 55 | 321 | 4.0 | 11.0 | 0.11 | 0.11 | 0.11 | 90 | 972.1 |
| 20260509200214 | 54 | 322 | 2.0 | 11.0 | 0.11 | 0.11 | 0.11 | 95 | 972.1 |
| 20260509195405 | 52 | 314 | 2.0 | 17.0 | 0.11 | 0.11 | 0.11 | 97 | 972.4 |
| 20260509194503 | 52 | 303 | 2.0 | 22.0 | 0.09 | 0.09 | 0.09 | 92 | 973.0 |
| 20260509193606 | 57 | 323 | 8.0 | 22.0 | 0.01 | 0.01 | 0.01 | 78 | 972.4 |
| 20260509192703 | 62 | 301 | 8.0 | 21.0 | 0.00 | 0.00 | 0.00 | 56 | 971.3 |
| 20260509191805 | 63 | 283 | 8.0 | 25.0 | 0.00 | 0.00 | 0.00 | 54 | 971.0 |
| 20260509190905 | 64 | 307 | 9.0 | 29.0 | 0.00 | 0.00 | 0.00 | 51 | 971.0 |
| 20260509190003 | 65 | 314 | 8.0 | 23.0 | 0.00 | 0.00 | 0.00 | 49 | 971.1 |
| 20260509185405 | 65 | 309 | 5.0 | 18.0 | 0.00 | 0.00 | 0.00 | 48 | 971.0 |
| 20260509184713 | 65 | 309 | 9.0 | 19.0 | 0.00 | 0.00 | 0.00 | 47 | 970.9 |
| 20260509183816 | 65 | 281 | 4.0 | 31.0 | 0.00 | 0.00 | 0.00 | 46 | 970.9 |
| 20260509182703 | 67 | 299 | 5.0 | 29.0 | 0.00 | 0.00 | 0.00 | 45 | 971.0 |
| 20260509181803 | 68 | 319 | 11.0 | 25.0 | 0.00 | 0.00 | 0.00 | 44 | 971.0 |
| 20260509180903 | 67 | 266 | 7.0 | 22.0 | 0.00 | 0.00 | 0.00 | 49 | 971.0 |